Date String (YYYY-MM-DD hh:mm:ss) UTC,Instrument flags,absolute air pressure of the measurement (hPa),sample flow rate (lpm),inlet stack bypass flow (lpm),air temperature of the measurement (°C),ambient temperature measured by the external sensor (°C),aerosol sample conditioner tube jacket temperature (°C),OPC LED temperature (°C),internal box temperature (°C),relative humidity of the measurement (%),span deviation,mass concentration of particles derived from Lorenz-Mie calculation of OPC scattering (μg/m³),mass concentration of particles derived from Lorenz-Mie calculation of OPC scattering (μg/m³),mass concentration of particles derived from Lorenz-Mie calculation of OPC scattering (μg/m³)
DateTimeUTC,F1_M11,P_M11,Q1_M11,Q2_M11,T1_M11,T2_M11,T3_M11,T4_M11,T5_M11,U1_M11,ZSPAN_M11,X2_M11,X0_M11,X1_M11
2024-02-19 05:00:00,SystemResetWarning,0823.2,4.99,000.00,018.6,018.0,000.0,027.0,020.2,17.1,0000.0,0000.56,0001.94,0000.46
2024-02-19 05:01:00,SystemResetWarning,0823.1,4.99,000.00,018.6,018.0,000.0,027.0,020.2,17.3,0000.0,0000.57,0001.96,0000.45
2024-02-19 05:02:00,SystemResetWarning,0823.0,5.00,000.00,018.6,018.0,000.0,026.9,020.2,17.3,0000.0,0000.57,0001.98,0000.43
2024-02-19 05:03:00,SystemResetWarning,0823.1,5.00,000.00,018.6,018.0,000.0,026.9,020.2,17.4,0000.0,0000.56,0003.37,0000.41
2024-02-19 05:04:00,SystemResetWarning,0823.1,5.01,000.00,018.6,018.0,000.0,026.9,020.2,17.3,0000.0,0000.55,0003.41,0000.40
2024-02-19 05:05:00,SystemResetWarning,0823.1,5.00,000.00,018.5,017.9,000.0,026.9,020.2,17.4,0000.0,0000.56,0002.58,0000.40
2024-02-19 05:06:00,SystemResetWarning,0823.1,4.99,000.00,018.5,017.9,000.0,026.9,020.2,17.3,0000.0,0000.57,0002.45,0000.39
2024-02-19 05:07:00,SystemResetWarning,0823.1,4.99,000.00,018.5,017.9,000.0,026.9,020.2,17.1,0000.0,0000.56,0002.54,0000.37
2024-02-19 05:08:00,SystemResetWarning,0823.1,5.01,000.00,018.5,017.9,000.0,026.9,020.2,17.1,0000.0,0000.54,0002.51,0000.37
2024-02-19 05:09:00,SystemResetWarning,0823.2,5.00,000.00,018.5,017.9,000.0,026.9,020.1,16.9,0000.0,0000.54,0002.50,0000.36
2024-02-19 05:10:00,SystemResetWarning,0823.3,5.00,000.00,018.5,017.9,000.0,026.9,020.1,17.2,0000.0,0000.55,0002.62,0000.36
2024-02-19 05:11:00,SystemResetWarning,0823.2,5.00,000.00,018.5,017.9,000.0,026.9,020.1,17.2,0000.0,0000.55,0002.65,0000.36
2024-02-19 05:12:00,SystemResetWarning,0823.2,5.00,000.00,018.5,017.8,000.0,026.9,020.1,17.2,0000.0,0000.55,0002.75,0000.37
2024-02-19 05:13:00,SystemResetWarning,0823.1,5.00,000.00,018.5,017.8,000.0,026.9,020.1,17.3,0000.0,0000.54,0002.62,0000.37
2024-02-19 05:14:00,SystemResetWarning,0823.1,5.00,000.00,018.5,017.8,000.0,026.8,020.1,17.1,0000.0,0000.54,0001.23,0000.37
2024-02-19 05:15:00,SystemResetWarning,0823.1,5.00,000.00,018.5,017.8,000.0,026.8,020.1,16.7,0000.0,0000.55,0001.28,0000.37
2024-02-19 05:16:00,SystemResetWarning,0823.1,5.00,000.00,018.5,017.8,000.0,026.8,020.1,17.0,0000.0,0000.56,0001.28,0000.37
2024-02-19 05:17:00,SystemResetWarning,0823.1,4.99,000.00,018.5,017.8,000.0,026.8,020.1,17.3,0000.0,0000.56,0001.20,0000.37
2024-02-19 05:18:00,SystemResetWarning,0823.2,4.99,000.00,018.5,017.8,000.0,026.8,020.1,17.2,0000.0,0000.55,0001.09,0000.38
2024-02-19 05:19:00,SystemResetWarning,0823.3,5.00,000.00,018.4,017.8,000.0,026.8,020.1,17.2,0000.0,0000.56,0001.13,0000.37
2024-02-19 05:20:00,SystemResetWarning,0823.3,5.01,000.00,018.4,017.8,000.0,026.8,020.1,17.5,0000.0,0000.56,0001.29,0000.37
2024-02-19 05:21:00,SystemResetWarning,0823.2,5.00,000.00,018.4,017.8,000.0,026.8,020.1,17.5,0000.0,0000.56,0001.27,0000.36
2024-02-19 05:22:00,SystemResetWarning,0823.1,5.00,000.00,018.4,017.8,000.0,026.8,020.1,17.2,0000.0,0000.53,0001.21,0000.35
2024-02-19 05:23:00,SystemResetWarning,0823.1,4.99,000.00,018.4,017.8,000.0,026.8,020.1,17.3,0000.0,0000.51,0001.09,0000.34
2024-02-19 05:24:00,SystemResetWarning,0823.1,5.00,000.00,018.4,017.9,000.0,026.8,020.1,17.4,0000.0,0000.50,0001.08,0000.34
2024-02-19 05:25:00,SystemResetWarning,0823.0,5.00,000.00,018.4,017.9,000.0,026.8,020.1,17.3,0000.0,0000.49,0001.08,0000.34
2024-02-19 05:26:00,SystemResetWarning,0823.0,5.00,000.00,018.4,017.9,000.0,026.8,020.1,17.2,0000.0,0000.48,0001.02,0000.34
2024-02-19 05:27:00,SystemResetWarning,0823.0,5.00,000.00,018.4,017.9,000.0,026.8,020.1,17.1,0000.0,0000.46,0001.00,0000.34
2024-02-19 05:28:00,SystemResetWarning,0823.1,5.00,000.00,018.4,017.9,000.0,026.8,020.1,17.0,0000.0,0000.45,0001.01,0000.33
2024-02-19 05:29:00,SystemResetWarning,0823.1,5.00,000.00,018.4,017.9,000.0,026.8,020.1,17.0,0000.0,0000.43,0000.97,0000.32
2024-02-19 05:30:00,SystemResetWarning,0823.1,5.00,000.00,018.4,017.9,000.0,026.8,020.1,16.7,0000.0,0000.41,0000.91,0000.32
2024-02-19 05:31:00,SystemResetWarning,0823.0,5.01,000.00,018.4,017.9,000.0,026.8,020.1,16.5,0000.0,0000.40,0000.75,0000.31
2024-02-19 05:32:00,SystemResetWarning,0823.0,5.00,000.00,018.4,017.9,000.0,026.8,020.1,16.0,0000.0,0000.39,0000.65,0000.31
2024-02-19 05:33:00,SystemResetWarning,0822.9,5.00,000.00,018.4,017.9,000.0,026.8,020.1,16.1,0000.0,0000.38,0000.63,0000.31
2024-02-19 05:34:00,SystemResetWarning,0823.1,5.00,000.00,018.4,017.9,000.0,026.8,020.1,16.0,0000.0,0000.37,0000.60,0000.31
2024-02-19 05:35:00,SystemResetWarning,0823.0,5.00,000.00,018.4,017.9,000.0,026.8,020.0,15.7,0000.0,0000.39,0000.65,0000.31
2024-02-19 05:36:00,SystemResetWarning,0823.0,5.00,000.00,018.4,017.9,000.0,026.8,020.1,15.2,0000.0,0000.41,0000.72,0000.31
2024-02-19 05:37:00,SystemResetWarning,0823.1,5.00,000.00,018.4,017.9,000.0,026.8,020.0,15.1,0000.0,0000.41,0000.72,0000.32
2024-02-19 05:38:00,SystemResetWarning,0823.1,5.00,000.00,018.4,017.8,000.0,026.7,020.0,15.1,0000.0,0000.40,0000.70,0000.31
2024-02-19 05:39:00,SystemResetWarning,0823.0,4.99,000.00,018.4,017.8,000.0,026.7,020.0,15.2,0000.0,0000.39,0000.62,0000.31
2024-02-19 05:40:00,SystemResetWarning,0822.9,5.00,000.00,018.4,017.8,000.0,026.7,020.0,15.4,0000.0,0000.40,0000.64,0000.32
2024-02-19 05:41:00,SystemResetWarning,0823.1,5.01,000.00,018.4,017.8,000.0,026.8,020.0,15.6,0000.0,0000.39,0000.62,0000.31
2024-02-19 05:42:00,SystemResetWarning,0823.0,5.01,000.00,018.4,017.8,000.0,026.8,020.0,15.4,0000.0,0000.39,0000.59,0000.32
2024-02-19 05:43:00,SystemResetWarning,0822.9,5.00,000.00,018.4,017.8,000.0,026.8,020.1,15.2,0000.0,0000.40,0000.64,0000.32
2024-02-19 05:44:00,SystemResetWarning,0823.0,4.99,000.00,018.4,017.8,000.0,026.8,020.1,15.2,0000.0,0000.42,0000.70,0000.33
2024-02-19 05:45:00,SystemResetWarning,0823.1,4.99,000.00,018.4,017.8,000.0,026.8,020.1,15.2,0000.0,0000.44,0000.73,0000.33
2024-02-19 05:46:00,SystemResetWarning,0822.8,5.00,000.00,018.4,017.9,000.0,026.8,020.1,15.4,0000.0,0000.43,0000.70,0000.34
2024-02-19 05:47:00,SystemResetWarning,0822.8,5.01,000.00,018.4,017.9,000.0,026.8,020.1,15.2,0000.0,0000.41,0000.62,0000.34
2024-02-19 05:48:00,SystemResetWarning,0822.7,5.01,000.00,018.4,017.9,000.0,026.8,020.1,15.2,0000.0,0000.42,0000.63,0000.34
2024-02-19 05:49:00,SystemResetWarning,0822.7,5.00,000.00,018.4,017.9,000.0,026.8,020.1,15.2,0000.0,0000.44,0000.69,0000.35
2024-02-19 05:50:00,SystemResetWarning,0822.6,5.00,000.00,018.4,017.9,000.0,026.8,020.1,15.1,0000.0,0000.46,0000.74,0000.35
2024-02-19 05:51:00,SystemResetWarning,0822.7,5.00,000.00,018.4,017.9,000.0,026.8,020.1,14.8,0000.0,0000.46,0000.74,0000.36
2024-02-19 05:52:00,SystemResetWarning,0822.7,5.00,000.00,018.4,017.9,000.0,026.8,020.1,14.9,0000.0,0000.48,0000.78,0000.37
2024-02-19 05:53:00,SystemResetWarning,0822.7,5.00,000.00,018.4,017.9,000.0,026.8,020.2,14.8,0000.0,0000.49,0000.80,0000.38
2024-02-19 05:54:00,SystemResetWarning,0822.7,5.00,000.00,018.4,018.0,000.0,026.8,020.2,14.8,0000.0,0000.49,0000.76,0000.38
2024-02-19 05:55:00,SystemResetWarning,0822.7,4.99,000.00,018.4,018.0,000.0,026.8,020.2,14.8,0000.0,0000.47,0000.71,0000.38
2024-02-19 05:56:00,SystemResetWarning,0822.9,5.00,000.00,018.5,018.0,000.0,026.8,020.2,14.7,0000.0,0000.46,0000.68,0000.38
2024-02-19 05:57:00,SystemResetWarning,0822.8,4.99,000.00,018.5,018.0,000.0,026.8,020.2,14.6,0000.0,0000.45,0000.65,0000.38
2024-02-19 05:58:00,SystemResetWarning,0823.1,5.00,000.00,018.5,018.0,000.0,026.8,020.2,14.5,0000.0,0000.46,0000.71,0000.37
2024-02-19 05:59:00,SystemResetWarning,0822.7,5.01,000.00,018.5,018.0,000.0,026.8,020.2,14.9,0000.0,0000.46,0000.73,0000.37
